| time (UTC) | temp F | wind direction | speed MPH | gust MPH | rain 1hr in | rain 24hr in | rain mn in | humidity % | barometer mb |
| 20260510151516 | 77 | 207 | 4.0 | 9.0 | 0.00 | 0.00 | 0.00 | 62 | 1013.7 |
| 20260510150556 | 76 | 209 | 4.0 | 12.0 | 0.00 | 0.00 | 0.00 | 63 | 1014.0 |
| 20260510145516 | 76 | 215 | 3.0 | 6.0 | 0.00 | 0.00 | 0.00 | 63 | 1014.1 |
| 20260510144516 | 75 | 200 | 3.0 | 8.0 | 0.00 | 0.00 | 0.00 | 63 | 1014.3 |
| 20260510143516 | 75 | 151 | 3.0 | 10.0 | 0.00 | 0.00 | 0.00 | 64 | 1014.4 |
| 20260510142517 | 74 | 132 | 3.0 | 8.0 | 0.00 | 0.00 | 0.00 | 64 | 1014.5 |
| 20260510141536 | 72 | 119 | 2.0 | 8.0 | 0.00 | 0.00 | 0.00 | 67 | 1014.8 |
| 20260510140537 | 72 | 96 | 2.0 | 7.0 | 0.00 | 0.00 | 0.00 | 68 | 1015.0 |
| 20260510135517 | 72 | 99 | 2.0 | 4.0 | 0.00 | 0.00 | 0.00 | 68 | 1015.3 |
| 20260510134517 | 72 | 89 | 3.0 | 7.0 | 0.00 | 0.00 | 0.00 | 67 | 1015.3 |
| 20260510133517 | 72 | 110 | 1.0 | 4.0 | 0.00 | 0.00 | 0.00 | 68 | 1015.2 |
| 20260510132517 | 71 | 91 | 1.0 | 5.0 | 0.00 | 0.00 | 0.00 | 69 | 1014.9 |
| 20260510131517 | 71 | 108 | 2.0 | 5.0 | 0.00 | 0.00 | 0.00 | 70 | 1014.6 |
| 20260510130518 | 71 | 112 | 2.0 | 6.0 | 0.00 | 0.00 | 0.00 | 70 | 1014.6 |
| 20260510125538 | 71 | 107 | 2.0 | 4.0 | 0.00 | 0.00 | 0.00 | 70 | 1014.6 |
| 20260510124518 | 71 | 103 | 1.0 | 5.0 | 0.00 | 0.00 | 0.00 | 70 | 1014.4 |
| 20260510123535 | 70 | 105 | 2.0 | 6.0 | 0.00 | 0.00 | 0.00 | 70 | 1014.4 |
| 20260510122516 | 70 | 100 | 2.0 | 7.0 | 0.00 | 0.00 | 0.00 | 70 | 1014.2 |
| 20260510121515 | 70 | 100 | 2.0 | 5.0 | 0.00 | 0.00 | 0.00 | 70 | 1014.1 |
| 20260510120516 | 70 | 106 | 2.0 | 8.0 | 0.00 | 0.00 | 0.00 | 70 | 1014.0 |
| 20260510115516 | 70 | 89 | 2.0 | 8.0 | 0.00 | 0.00 | 0.00 | 71 | 1014.0 |
| 20260510114516 | 71 | 76 | 2.0 | 5.0 | 0.00 | 0.00 | 0.00 | 70 | 1013.8 |
| 20260510113517 | 71 | 72 | 2.0 | 10.0 | 0.00 | 0.00 | 0.00 | 70 | 1013.9 |
| 20260510112516 | 71 | 87 | 2.0 | 5.0 | 0.00 | 0.00 | 0.00 | 70 | 1013.9 |
| 20260510111517 | 71 | 83 | 2.0 | 7.0 | 0.00 | 0.00 | 0.00 | 70 | 1013.8 |
| 20260510110517 | 72 | 69 | 3.0 | 9.0 | 0.00 | 0.00 | 0.00 | 70 | 1013.6 |
| 20260510105517 | 72 | 51 | 4.0 | 9.0 | 0.00 | 0.00 | 0.00 | 72 | 1013.4 |
| 20260510104517 | 72 | 51 | 3.0 | 6.0 | 0.00 | 0.00 | 0.00 | 71 | 1013.5 |
| 20260510103517 | 72 | 50 | 4.0 | 8.0 | 0.00 | 0.00 | 0.00 | 71 | 1013.4 |
| 20260510102518 | 73 | 47 | 4.0 | 6.0 | 0.00 | 0.00 | 0.00 | 73 | 1013.5 |
| 20260510101538 | 74 | 48 | 4.0 | 6.0 | 0.00 | 0.00 | 0.00 | 75 | 1013.3 |
| 20260510100518 | 74 | 47 | 2.0 | 4.0 | 0.00 | 0.00 | 0.00 | 81 | 1013.2 |
| 20260510095518 | 74 | 47 | 2.0 | 3.0 | 0.00 | 0.00 | 0.00 | 82 | 1013.1 |
| 20260510094515 | 74 | 47 | 2.0 | 4.0 | 0.00 | 0.00 | 0.00 | 82 | 1013.0 |
| 20260510093515 | 73 | 46 | 2.0 | 3.0 | 0.00 | 0.00 | 0.00 | 83 | 1013.0 |
| 20260510092536 | 73 | 46 | 1.0 | 2.0 | 0.00 | 0.00 | 0.00 | 82 | 1012.4 |
| 20260510091516 | 73 | 46 | 1.0 | 3.0 | 0.00 | 0.00 | 0.00 | 83 | 1012.3 |
| 20260510090536 | 73 | 46 | 0.0 | 1.0 | 0.00 | 0.00 | 0.00 | 82 | 1011.8 |
| 20260510085516 | 73 | 46 | 1.0 | 2.0 | 0.00 | 0.00 | 0.00 | 82 | 1011.8 |
| 20260510084517 | 73 | 46 | 1.0 | 1.0 | 0.00 | 0.00 | 0.00 | 81 | 1011.9 |
| 20260510083516 | 73 | 43 | 1.0 | 3.0 | 0.00 | 0.00 | 0.00 | 81 | 1011.6 |
| 20260510082516 | 74 | 26 | 0.0 | 3.0 | 0.00 | 0.00 | 0.00 | 80 | 1011.1 |
| 20260510081517 | 74 | 30 | 1.0 | 3.0 | 0.00 | 0.00 | 0.00 | 79 | 1010.8 |
| 20260510080517 | 75 | 31 | 0.0 | 2.0 | 0.00 | 0.00 | 0.00 | 78 | 1010.6 |
| 20260510075517 | 76 | 74 | 0.0 | 1.0 | 0.00 | 0.00 | 0.00 | 76 | 1010.6 |
| 20260510074517 | 76 | 91 | 1.0 | 5.0 | 0.00 | 0.00 | 0.00 | 76 | 1010.5 |
| 20260510073518 | 76 | 117 | 1.0 | 3.0 | 0.00 | 0.00 | 0.00 | 75 | 1010.3 |
| 20260510072601 | 76 | 199 | 1.0 | 4.0 | 0.00 | 0.00 | 0.00 | 75 | 1010.2 |
| 20260510071520 | 76 | 192 | 1.0 | 8.0 | 0.00 | 0.00 | 0.00 | 74 | 1010.5 |
| 20260510070540 | 76 | 119 | 1.0 | 3.0 | 0.00 | 0.00 | 0.00 | 73 | 1010.9 |
| 20260510065520 | 76 | 263 | 1.0 | 5.0 | 0.00 | 0.00 | 0.00 | 71 | 1011.1 |
| 20260510064515 | 76 | 44 | 1.0 | 11.0 | 0.00 | 0.00 | 0.00 | 71 | 1011.4 |
| 20260510063518 | 76 | 48 | 1.0 | 3.0 | 0.00 | 0.00 | 0.00 | 71 | 1011.5 |
| 20260510062518 | 76 | 68 | 1.0 | 3.0 | 0.00 | 0.00 | 0.00 | 70 | 1010.5 |
| 20260510061536 | 76 | 220 | 1.0 | 4.0 | 0.00 | 0.00 | 0.00 | 69 | 1009.7 |
| 20260510060516 | 75 | 204 | 2.0 | 8.0 | 0.00 | 0.00 | 0.00 | 68 | 1009.6 |
| 20260510055516 | 75 | 185 | 1.0 | 4.0 | 0.00 | 0.00 | 0.00 | 67 | 1009.5 |
| 20260510054516 | 76 | 145 | 1.0 | 3.0 | 0.00 | 0.00 | 0.00 | 66 | 1009.4 |
| 20260510053537 | 76 | 116 | 1.0 | 5.0 | 0.00 | 0.00 | 0.00 | 65 | 1009.5 |
| 20260510052517 | 76 | 200 | 1.0 | 4.0 | 0.00 | 0.00 | 0.00 | 64 | 1009.2 |
| 20260510051518 | 77 | 180 | 1.0 | 4.0 | 0.00 | 0.00 | 0.00 | 64 | 1009.1 |
| 20260510050518 | 77 | 186 | 1.0 | 3.0 | 0.00 | 0.00 | 0.00 | 65 | 1009.0 |
| 20260510045518 | 77 | 163 | 1.0 | 5.0 | 0.00 | 0.00 | 0.00 | 65 | 1008.9 |
| 20260510044518 | 77 | 136 | 1.0 | 4.0 | 0.00 | 0.00 | 0.00 | 64 | 1009.0 |
| 20260510043518 | 77 | 166 | 1.0 | 2.0 | 0.00 | 0.00 | 0.00 | 64 | 1009.1 |
| 20260510042518 | 78 | 146 | 2.0 | 5.0 | 0.00 | 0.00 | 0.00 | 63 | 1009.2 |
| 20260510041519 | 78 | 125 | 2.0 | 5.0 | 0.00 | 0.00 | 0.00 | 62 | 1009.3 |
| 20260510040516 | 78 | 130 | 2.0 | 5.0 | 0.00 | 0.00 | 0.00 | 62 | 1009.3 |
| 20260510035516 | 78 | 126 | 1.0 | 5.0 | 0.00 | 0.00 | 0.00 | 61 | 1009.4 |
| 20260510034516 | 78 | 114 | 2.0 | 5.0 | 0.00 | 0.00 | 0.00 | 61 | 1009.4 |
| 20260510033516 | 79 | 104 | 1.0 | 4.0 | 0.00 | 0.00 | 0.00 | 61 | 1009.5 |
| 20260510032537 | 79 | 91 | 1.0 | 4.0 | 0.00 | 0.00 | 0.00 | 61 | 1009.6 |
| 20260510031516 | 79 | 112 | 1.0 | 3.0 | 0.00 | 0.00 | 0.00 | 61 | 1009.5 |
| 20260510030517 | 80 | 138 | 1.0 | 3.0 | 0.00 | 0.00 | 0.00 | 60 | 1009.5 |
| 20260510025517 | 80 | 126 | 1.0 | 3.0 | 0.00 | 0.00 | 0.00 | 59 | 1009.4 |
| 20260510024557 | 80 | 112 | 1.0 | 3.0 | 0.00 | 0.00 | 0.00 | 59 | 1009.3 |
| 20260510023518 | 81 | 127 | 0.0 | 2.0 | 0.00 | 0.00 | 0.00 | 59 | 1009.2 |
| 20260510022517 | 81 | 118 | 1.0 | 3.0 | 0.00 | 0.00 | 0.00 | 58 | 1009.1 |
| 20260510021518 | 82 | 103 | 1.0 | 3.0 | 0.00 | 0.00 | 0.00 | 58 | 1008.9 |
| 20260510020538 | 82 | 109 | 1.0 | 4.0 | 0.00 | 0.00 | 0.00 | 58 | 1008.8 |
| 20260510015518 | 83 | 120 | 1.0 | 4.0 | 0.00 | 0.00 | 0.00 | 58 | 1008.7 |
| 20260510014515 | 83 | 113 | 1.0 | 4.0 | 0.00 | 0.00 | 0.00 | 57 | 1008.6 |
| 20260510013515 | 84 | 106 | 1.0 | 5.0 | 0.00 | 0.00 | 0.00 | 55 | 1008.4 |
| 20260510012518 | 84 | 102 | 1.0 | 5.0 | 0.00 | 0.00 | 0.00 | 52 | 1008.3 |
| 20260510011536 | 86 | 118 | 0.0 | 1.0 | 0.00 | 0.00 | 0.00 | 47 | 1008.2 |
| 20260510010516 | 86 | 154 | 0.0 | 1.0 | 0.00 | 0.00 | 0.00 | 46 | 1008.1 |
| 20260510005516 | 87 | 124 | 0.0 | 3.0 | 0.00 | 0.00 | 0.00 | 45 | 1007.9 |
| 20260510004516 | 89 | 130 | 1.0 | 3.0 | 0.00 | 0.00 | 0.00 | 43 | 1007.9 |
| 20260510003516 | 90 | 106 | 0.0 | 3.0 | 0.00 | 0.00 | 0.00 | 41 | 1007.9 |
| 20260510002536 | 91 | 110 | 0.0 | 2.0 | 0.00 | 0.00 | 0.00 | 41 | 1007.9 |
| 20260510001517 | 91 | 132 | 0.0 | 3.0 | 0.00 | 0.00 | 0.00 | 40 | 1007.9 |
| 20260510000517 | 91 | 151 | 0.0 | 2.0 | 0.00 | 0.00 | 0.00 | 40 | 1007.9 |
| 20260509235537 | 91 | 114 | 1.0 | 2.0 | 0.00 | 0.00 | 0.00 | 40 | 1007.9 |
| 20260509234517 | 91 | 79 | 1.0 | 3.0 | 0.00 | 0.00 | 0.00 | 40 | 1007.9 |
| 20260509233517 | 91 | 59 | 1.0 | 3.0 | 0.00 | 0.00 | 0.00 | 40 | 1008.0 |
| 20260509232517 | 91 | 51 | 1.0 | 2.0 | 0.00 | 0.00 | 0.00 | 39 | 1007.9 |
| 20260509231519 | 91 | 95 | 1.0 | 4.0 | 0.00 | 0.00 | 0.00 | 40 | 1007.9 |
| 20260509230539 | 92 | 81 | 2.0 | 6.0 | 0.00 | 0.00 | 0.00 | 40 | 1007.9 |
| 20260509225539 | 92 | 61 | 1.0 | 3.0 | 0.00 | 0.00 | 0.00 | 39 | 1007.9 |
| 20260509224519 | 94 | 69 | 2.0 | 4.0 | 0.00 | 0.00 | 0.00 | 39 | 1007.8 |
| 20260509223519 | 94 | 96 | 0.0 | 2.0 | 0.00 | 0.00 | 0.00 | 33 | 1007.8 |
| 20260509222515 | 94 | 94 | 1.0 | 3.0 | 0.00 | 0.00 | 0.00 | 34 | 1007.8 |
| 20260509221516 | 93 | 275 | 1.0 | 4.0 | 0.00 | 0.00 | 0.00 | 35 | 1007.8 |
| 20260509220516 | 93 | 46 | 0.0 | 2.0 | 0.00 | 0.00 | 0.00 | 36 | 1007.9 |
| 20260509215519 | 93 | 60 | 1.0 | 4.0 | 0.00 | 0.00 | 0.00 | 36 | 1007.9 |
| 20260509214519 | 93 | 121 | 1.0 | 6.0 | 0.00 | 0.00 | 0.00 | 36 | 1008.0 |
| 20260509213519 | 93 | 101 | 1.0 | 3.0 | 0.00 | 0.00 | 0.00 | 37 | 1008.1 |
| 20260509212519 | 93 | 243 | 1.0 | 3.0 | 0.00 | 0.00 | 0.00 | 36 | 1008.2 |
| 20260509211519 | 93 | 103 | 0.0 | 2.0 | 0.00 | 0.00 | 0.00 | 35 | 1008.4 |
| 20260509210559 | 93 | 80 | 1.0 | 5.0 | 0.00 | 0.00 | 0.00 | 37 | 1008.5 |
| 20260509205519 | 94 | 62 | 0.0 | 3.0 | 0.00 | 0.00 | 0.00 | 36 | 1008.6 |
| 20260509204539 | 92 | 96 | 1.0 | 4.0 | 0.00 | 0.00 | 0.00 | 38 | 1008.8 |
| 20260509203519 | 92 | 154 | 1.0 | 5.0 | 0.00 | 0.00 | 0.00 | 38 | 1009.0 |
| 20260509202519 | 92 | 36 | 1.0 | 5.0 | 0.00 | 0.01 | 0.00 | 39 | 1009.1 |
| 20260509201518 | 93 | 50 | 1.0 | 4.0 | 0.00 | 0.01 | 0.00 | 39 | 1009.2 |
| 20260509200539 | 91 | 220 | 0.0 | 5.0 | 0.00 | 0.04 | 0.00 | 40 | 1009.3 |
| 20260509195519 | 91 | 264 | 1.0 | 3.0 | 0.00 | 0.04 | 0.00 | 39 | 1009.3 |
| 20260509194518 | 90 | 65 | 1.0 | 4.0 | 0.00 | 0.04 | 0.00 | 40 | 1009.4 |
| 20260509193515 | 88 | 232 | 1.0 | 4.0 | 0.00 | 0.04 | 0.00 | 43 | 1009.5 |
| 20260509192519 | 89 | 274 | 2.0 | 7.0 | 0.00 | 0.04 | 0.00 | 44 | 1009.6 |
| 20260509191539 | 88 | 282 | 1.0 | 4.0 | 0.00 | 0.04 | 0.00 | 44 | 1009.6 |
| 20260509190518 | 87 | 214 | 2.0 | 5.0 | 0.00 | 0.04 | 0.00 | 44 | 1009.7 |
| 20260509185518 | 88 | 278 | 2.0 | 5.0 | 0.00 | 0.04 | 0.00 | 45 | 1009.9 |
| 20260509184519 | 88 | 258 | 3.0 | 6.0 | 0.00 | 0.04 | 0.00 | 45 | 1009.9 |
| 20260509183516 | 88 | 256 | 1.0 | 6.0 | 0.00 | 0.04 | 0.00 | 44 | 1009.9 |
| 20260509182516 | 88 | 278 | 1.0 | 5.0 | 0.00 | 0.04 | 0.00 | 44 | 1010.1 |
| 20260509181517 | 87 | 271 | 2.0 | 5.0 | 0.00 | 0.04 | 0.00 | 45 | 1010.2 |
| 20260509180517 | 87 | 266 | 2.0 | 7.0 | 0.00 | 0.04 | 0.00 | 45 | 1010.3 |
| 20260509175517 | 86 | 253 | 2.0 | 5.0 | 0.00 | 0.04 | 0.00 | 46 | 1010.3 |
| 20260509174537 | 88 | 261 | 2.0 | 5.0 | 0.00 | 0.04 | 0.00 | 45 | 1010.4 |
| 20260509173517 | 87 | 104 | 1.0 | 5.0 | 0.00 | 0.04 | 0.00 | 45 | 1010.5 |
| 20260509172517 | 86 | 275 | 1.0 | 5.0 | 0.00 | 0.04 | 0.00 | 48 | 1010.5 |
| 20260509171518 | 86 | 270 | 1.0 | 5.0 | 0.00 | 0.04 | 0.00 | 47 | 1010.6 |
| 20260509170518 | 85 | 274 | 1.0 | 4.0 | 0.00 | 0.04 | 0.00 | 48 | 1010.8 |
| 20260509165538 | 85 | 311 | 2.0 | 6.0 | 0.00 | 0.04 | 0.00 | 49 | 1010.8 |
| 20260509164539 | 84 | 333 | 2.0 | 6.0 | 0.00 | 0.04 | 0.00 | 49 | 1010.9 |
| 20260509163519 | 84 | 290 | 1.0 | 6.0 | 0.00 | 0.04 | 0.00 | 51 | 1010.9 |
| 20260509162516 | 84 | 268 | 1.0 | 5.0 | 0.00 | 0.04 | 0.00 | 52 | 1010.9 |
| 20260509161519 | 83 | 284 | 1.0 | 6.0 | 0.00 | 0.04 | 0.00 | 53 | 1010.8 |
| 20260509160516 | 83 | 329 | 1.0 | 3.0 | 0.00 | 0.04 | 0.00 | 52 | 1010.9 |
| 20260509155516 | 83 | 282 | 2.0 | 9.0 | 0.00 | 0.04 | 0.00 | 53 | 1010.8 |
| 20260509154516 | 82 | 218 | 1.0 | 3.0 | 0.00 | 0.04 | 0.00 | 55 | 1010.7 |
| 20260509153516 | 82 | 314 | 1.0 | 7.0 | 0.00 | 0.04 | 0.00 | 54 | 1010.7 |
| 20260509152516 | 82 | 344 | 1.0 | 4.0 | 0.00 | 0.04 | 0.00 | 54 | 1010.6 |